Location: Melbourne
(37.8170°S, 144.9670°E)
Time: 15:36:56
(UTC+11:00)

ISS - Visible Passes

Search period start: 03 December 2016 00:00
Search period end: 13 December 2016 00:00
Orbit: 401 x 410 km, 51.6° (Epoch: 03 December)

Date Brightness Start Highest point End Pass type
(mag) Time Alt. Az. Time Alt. Az. Time Alt. Az.
05 Dec -1.0 04:58:11 10° N 05:00:31 18° NE 05:02:53 10° E visible
07 Dec -2.7 04:50:25 15° NNW 04:52:57 48° NE 04:56:12 10° ESE visible
08 Dec -1.7 04:00:33 22° NNE 04:01:09 23° NE 04:03:53 10° ESE visible
09 Dec -0.4 03:10:36 10° ENE 03:10:36 10° ENE 03:10:45 10° ENE visible
09 Dec -3.0 04:43:17 19° WNW 04:45:31 62° SW 04:48:49 10° SE visible
10 Dec -3.3 03:53:15 60° N 03:53:33 65° NE 03:56:52 10° SE visible
11 Dec -1.1 03:03:10 21° E 03:03:10 21° E 03:04:39 10° ESE visible
11 Dec -1.7 04:35:49 14° W 04:38:09 27° SSW 04:41:06 10° SSE visible
12 Dec -2.7 03:45:40 44° WSW 03:46:03 47° SW 03:49:19 10° SE visible
12 Dec -0.5 05:21:55 10° SW 05:23:13 12° SSW 05:24:30 10° S visible
